Weather History for KARR - March, 2014

Change the Weather History Date:

Friday, March 21, 2014

  Actual Average Record
Temperature  
Mean Temperature 42 °F 39 °F  
Max Temperature 55 °F 50 °F 83 °F (2012)
Min Temperature 29 °F 29 °F 11 °F (2013)
Degree Days  
Heating Degree Days 23 26  
Month to date heating degree days 781 633  
Since 1 July heating degree days 6357 5771  
Cooling Degree Days 0 0  
Month to date cooling degree days 0 0  
Year to date cooling degree days 0 0  
Moisture  
Dew Point 34 °F    
Average Humidity 74    
Maximum Humidity 92    
Minimum Humidity 55    
Precipitation  
Precipitation T in 0.09 in 0.83 in (2007)
Month to date precipitation 0.43 1.47  
Year to date precipitation 2.28 4.56  
Sea Level Pressure  
Sea Level Pressure 29.87 in    
Wind  
Wind Speed 13 mph (SE)    
Max Wind Speed 26 mph    
Max Gust Speed 33 mph    
Visibility 6 miles    
Events      
T = Trace of Precipitation, MM = Missing Value Source: NWS Daily Summary

Daily Weather History Graph

Daily Weather History Graph

Search for Another Location

Airport or City:

Trip Planner

Search our weather history database for the weather conditions in past years. The results will help you decide how hot, cold, wet, or windy it might be!

Date:

Astronomy

Mar. 21, 2014 Rise Set
Actual Time 6:55 AM CDT 7:07 PM CDT
Civil Twilight 6:27 AM CDT 7:35 PM CDT
Nautical Twilight 5:55 AM CDT 8:07 PM CDT
Astronomical Twilight 5:22 AM CDT 8:40 PM CDT
Moon No Moon Rise 9:43 AM CDT (3/21)
Length of Visible Light 13h 07m
Length of Day
12h 11m
Waning Gibbous, 75% of the Moon is Illuminated
Mar 21
Waning Gibbous
Mar 23
Last Quarter
Mar 30
New
Apr 7
First Quarter
Apr 15
Full

Hourly Weather History & Observations

Time (CDT) Temp. Windchill Dew Point Humidity Pressure Visibility Wind Dir Wind Speed Gust Speed Precip Events Conditions
12:52 AM 35.1 °F 27.4 °F 27.0 °F 72% 30.00 in 8.0 mi East 10.4 mph - N/A   Overcast
1:52 AM 36.0 °F 31.1 °F 28.0 °F 73% 30.02 in 7.0 mi ESE 5.8 mph - 0.00 in   Overcast
2:52 AM 36.0 °F 30.3 °F 28.0 °F 73% 30.00 in 7.0 mi ESE 6.9 mph - N/A   Overcast
3:52 AM 34.0 °F 29.8 °F 28.9 °F 82% 29.98 in 6.0 mi ENE 4.6 mph - N/A   Haze
4:52 AM 30.0 °F 26.5 °F 27.0 °F 88% 29.97 in 5.0 mi East 3.5 mph - N/A   Clear
5:52 AM 30.0 °F 23.2 °F 28.0 °F 92% 29.97 in 4.0 mi ENE 6.9 mph - N/A   Clear
6:52 AM 30.9 °F 24.3 °F 28.9 °F 92% 29.97 in 3.0 mi ENE 6.9 mph - N/A   Clear
7:52 AM 33.1 °F 26.1 °F 30.9 °F 92% 29.98 in 3.0 mi East 8.1 mph - N/A   Clear
8:52 AM 37.0 °F 28.9 °F 32.0 °F 82% 29.95 in 5.0 mi ESE 12.7 mph - N/A   Haze
9:52 AM 41.0 °F 34.7 °F 34.0 °F 76% 29.96 in 5.0 mi ESE 10.4 mph - N/A   Haze
10:52 AM 45.0 °F - 35.1 °F 68% 29.94 in 5.0 mi North - - N/A   Haze
11:52 AM 48.0 °F - 36.0 °F 63% 29.88 in 6.0 mi ESE 13.8 mph - N/A   Haze
12:52 PM 52.0 °F - 37.9 °F 59% 29.84 in 7.0 mi SE 19.6 mph - N/A   Clear
1:52 PM 53.1 °F - 39.9 °F 61% 29.82 in 6.0 mi SSE 17.3 mph - N/A   Haze
2:52 PM 54.0 °F - 39.0 °F 57% 29.77 in 6.0 mi SSE 18.4 mph 26.5 mph N/A   Haze
3:52 PM 54.0 °F - 42.1 °F 64% 29.73 in 6.0 mi SSE 17.3 mph - N/A   Haze
4:52 PM 55.0 °F - 42.1 °F 62% 29.68 in 8.0 mi South 9.2 mph - N/A   Mostly Cloudy
5:52 PM 55.0 °F - 39.9 °F 57% 29.71 in 9.0 mi SSW 15.0 mph - N/A   Overcast
6:52 PM 53.1 °F - 39.9 °F 61% 29.73 in 8.0 mi WSW 13.8 mph - N/A   Overcast
7:52 PM 50.0 °F - 39.9 °F 68% 29.75 in 8.0 mi West 18.4 mph - N/A   Overcast
8:52 PM 46.0 °F 38.5 °F 37.0 °F 71% 29.78 in - WNW 19.6 mph - N/A   Unknown
9:52 PM 43.0 °F 36.0 °F 35.1 °F 74% 29.80 in 9.0 mi WNW 13.8 mph - N/A   Mostly Cloudy
10:52 PM 39.9 °F 30.0 °F 34.0 °F 79% 29.84 in 9.0 mi WNW 21.9 mph 29.9 mph N/A   Clear
11:52 PM 37.0 °F 26.2 °F 30.9 °F 79% 29.87 in 10.0 mi WNW 21.9 mph 29.9 mph N/A   Clear